Location: Stuttgart
(48.8069°N, 9.1544°E)
Time: 00:45:09
(UTC+01:00)

OTV 5 (USA 277) - Visible Passes

Search period start: 20 February 2018 00:00
Search period end: 02 March 2018 00:00
Orbit: 404 x 417 km, 43.0° (Epoch: 07 September)

Date Brightness Start Highest point End Pass type
(mag) Time Alt. Az. Time Alt. Az. Time Alt. Az.
20 Feb ? 06:48:46 10° S 06:50:37 14° SSE 06:52:28 10° ESE visible
21 Feb ? 05:58:54 10° SSE 05:59:46 11° SSE 06:00:37 10° SE visible
22 Feb ? 06:42:50 10° SW 06:45:27 22° SSE 06:48:04 10° ESE visible
23 Feb ? 05:52:17 10° SSW 05:54:32 18° SSE 05:56:52 10° ESE visible
24 Feb ? 05:03:43 14° SSE 05:03:43 14° SSE 05:05:32 10° ESE visible
24 Feb ? 06:37:29 10° SW 06:40:21 28° S 06:43:14 10° ESE visible
25 Feb ? 05:47:48 17° SSW 05:49:25 25° S 05:52:12 10° ESE visible
26 Feb ? 04:59:06 21° SSE 04:59:06 21° SSE 05:01:06 10° ESE visible
26 Feb ? 06:32:23 10° WSW 06:35:18 29° S 06:38:13 10° ESE visible
27 Feb ? 05:43:07 22° SW 05:44:21 29° S 05:47:16 10° ESE visible
28 Feb ? 04:54:23 23° SE 04:54:23 23° SE 04:56:17 10° ESE visible
28 Feb ? 06:27:28 10° WSW 06:30:14 25° S 06:33:01 10° SE visible
01 Mar ? 05:38:23 24° SW 05:39:18 28° S 05:42:10 10° SE visible
